QPF
0.00 0.00 0.00 0.01 0.01 0.02 0.02 0.03 0.03 0.04 0.03 0.01 0.01 0.01 0.01 0.01 0.02 0.02 0.02 0.01 0.00 0.00 0.00 0.00 0.00 0.01 0.03 0.02 0.01 0.01 0.02 0.01 0.01 0.01 0.01 0.01 0.02 0.02 0.02 0.03 0.14 0.12 0.06 0.05 0.05 0.05 0.06 0.04 0.02
0.00 0.00 0.00 0.01 0.02 0.02 0.03 0.03 0.04 0.03 0.02 0.02 0.01 0.01 0.01 0.00 0.00 0.00 0.00 0.00 0.00 0.00 0.00 0.00 0.00 0.01 0.02 0.02 0.02 0.02 0.02 0.02 0.01 0.01 0.01 0.01 0.03 0.02 0.01 0.02 0.09 0.15 0.09 0.06 0.06 0.05 0.06 0.05 0.04
0.00 0.00 0.01 0.02 0.03 0.03 0.03 0.03 0.05 0.02 0.01 0.01 0.02 0.01 0.01 0.01 0.00 0.00 0.00 0.00 0.00 0.00 0.00 0.00 0.00 0.01 0.01 0.02 0.02 0.02 0.02 0.02 0.02 0.01 0.01 0.01 0.02 0.01 0.01 0.02 0.03 0.07 0.07 0.05 0.04 0.05 0.04 0.04 0.05
0.00 0.01 0.01 0.02 0.02 0.02 0.02 0.02 0.03 0.02 0.01 0.00 0.02 0.02 0.02 0.01 0.00 0.00 0.00 0.00 0.00 0.00 0.00 0.00 0.01 0.01 0.01 0.01 0.01 0.01 0.01 0.01 0.02 0.02 0.02 0.02 0.01 0.01 0.02 0.02 0.03 0.04 0.03 0.03 0.03 0.05 0.04 0.03 0.03
0.01 0.02 0.03 0.01 0.01 0.01 0.01 0.02 0.03 0.02 0.02 0.01 0.01 0.05 0.03 0.02 0.01 0.00 0.00 0.00 0.00 0.00 0.01 0.01 0.01 0.02 0.01 0.00 0.01 0.01 0.01 0.01 0.02 0.03 0.02 0.01 0.01 0.01 0.02 0.02 0.03 0.03 0.02 0.03 0.04 0.05 0.05 0.04 0.04
0.01 0.02 0.04 0.02 0.02 0.02 0.02 0.03 0.03 0.01 0.01 0.02 0.04 0.07 0.03 0.02 0.01 0.01 0.01 0.01 0.00 0.01 0.01 0.00 0.01 0.01 0.01 0.01 0.01 0.01 0.01 0.01 0.02 0.02 0.02 0.01 0.01 0.01 0.02 0.03 0.02 0.03 0.03 0.03 0.05 0.07 0.07 0.06 0.05
0.01 0.03 0.04 0.03 0.04 0.03 0.04 0.07 0.05 0.02 0.01 0.01 0.02 0.05 0.05 0.02 0.01 0.01 0.01 0.01 0.00 0.01 0.01 0.00 0.00 0.00 0.01 0.01 0.01 0.00 0.01 0.01 0.01 0.02 0.02 0.02 0.02 0.02 0.02 0.03 0.02 0.03 0.03 0.05 0.06 0.08 0.08 0.10 0.13
0.01 0.03 0.04 0.04 0.03 0.02 0.03 0.05 0.05 0.03 0.01 0.01 0.01 0.02 0.04 0.03 0.01 0.01 0.01 0.01 0.01 0.01 0.01 0.00 0.00 0.00 0.01 0.01 0.01 0.01 0.01 0.01 0.00 0.01 0.01 0.02 0.02 0.02 0.02 0.03 0.03 0.03 0.04 0.06 0.09 0.12 0.17 0.18 0.15
0.01 0.02 0.02 0.01 0.01 0.01 0.02 0.03 0.04 0.03 0.02 0.01 0.00 0.01 0.01 0.01 0.01 0.01 0.01 0.02 0.02 0.02 0.01 0.00 0.00 0.00 0.01 0.01 0.01 0.01 0.01 0.01 0.01 0.01 0.01 0.02 0.01 0.02 0.02 0.02 0.03 0.04 0.05 0.05 0.06 0.07 0.08 0.08 0.08
0.01 0.03 0.02 0.01 0.01 0.01 0.01 0.02 0.02 0.01 0.01 0.01 0.00 0.00 0.00 0.00 0.01 0.01 0.01 0.01 0.01 0.01 0.01 0.01 0.00 0.01 0.01 0.01 0.01 0.01 0.01 0.01 0.01 0.01 0.01 0.02 0.02 0.02 0.02 0.03 0.05 0.06 0.07 0.07 0.05 0.04 0.04 0.03 0.03
0.01 0.03 0.02 0.01 0.01 0.01 0.01 0.01 0.01 0.01 0.01 0.01 0.01 0.00 0.00 0.01 0.01 0.01 0.01 0.00 0.01 0.01 0.01 0.01 0.01 0.02 0.02 0.02 0.01 0.01 0.01 0.01 0.02 0.02 0.02 0.02 0.02 0.03 0.03 0.03 0.05 0.06 0.08 0.08 0.07 0.06 0.04 0.03 0.02
0.01 0.01 0.01 0.00 0.00 0.00 0.00 0.00 0.01 0.01 0.01 0.02 0.01 0.01 0.01 0.01 0.01 0.00 0.00 0.01 0.01 0.01 0.01 0.02 0.03 0.03 0.04 0.03 0.01 0.02 0.02 0.01 0.02 0.02 0.02 0.03 0.03 0.04 0.04 0.04 0.06 0.06 0.07 0.06 0.04 0.04 0.04 0.02 0.03
0.00 0.00 0.00 0.00 0.00 0.00 0.00 0.00 0.00 0.01 0.01 0.03 0.01 0.01 0.01 0.01 0.01 0.01 0.02 0.01 0.02 0.03 0.04 0.05 0.05 0.05 0.03 0.02 0.01 0.01 0.01 0.01 0.02 0.02 0.03 0.04 0.05 0.04 0.04 0.06 0.07 0.06 0.07 0.07 0.06 0.03 0.03 0.04 0.04
0.00 0.00 0.00 0.00 0.00 0.00 0.00 0.00 0.00 0.00 0.01 0.03 0.01 0.01 0.01 0.01 0.01 0.01 0.01 0.01 0.03 0.07 0.10 0.09 0.07 0.06 0.04 0.02 0.03 0.02 0.01 0.01 0.01 0.02 0.02 0.03 0.05 0.06 0.08 0.07 0.07 0.07 0.05 0.04 0.06 0.05 0.04 0.04 0.04
0.00 0.00 0.00 0.00 0.00 0.00 0.00 0.00 0.00 0.00 0.00 0.02 0.01 0.01 0.02 0.01 0.01 0.01 0.01 0.01 0.01 0.03 0.09 0.12 0.11 0.08 0.06 0.05 0.04 0.03 0.03 0.04 0.03 0.03 0.02 0.04 0.04 0.05 0.08 0.08 0.07 0.08 0.06 0.04 0.05 0.06 0.05 0.03 0.03
0.00 0.00 0.00 0.00 0.00 0.00 0.00 0.00 0.00 0.00 0.00 0.01 0.01 0.01 0.01 0.01 0.01 0.00 0.01 0.01 0.01 0.02 0.02 0.06 0.08 0.06 0.05 0.04 0.05 0.05 0.05 0.06 0.06 0.04 0.03 0.02 0.02 0.04 0.06 0.07 0.06 0.07 0.08 0.08 0.07 0.05 0.04 0.04 0.03
0.00 0.00 0.00 0.00 0.00 0.00 0.00 0.00 0.00 0.00 0.00 0.01 0.01 0.01 0.01 0.01 0.01 0.01 0.01 0.02 0.01 0.01 0.01 0.02 0.04 0.03 0.03 0.05 0.04 0.05 0.06 0.08 0.06 0.05 0.03 0.03 0.03 0.04 0.05 0.06 0.07 0.07 0.08 0.09 0.07 0.05 0.04 0.03 0.02
0.00 0.00 0.00 0.00 0.00 0.01 0.01 0.01 0.00 0.00 0.00 0.00 0.01 0.01 0.01 0.01 0.01 0.01 0.02 0.02 0.01 0.01 0.01 0.01 0.02 0.03 0.04 0.05 0.05 0.05 0.04 0.03 0.03 0.03 0.03 0.02 0.03 0.04 0.04 0.05 0.09 0.09 0.08 0.07 0.07 0.06 0.05 0.03 0.02
0.00 0.00 0.00 0.00 0.00 0.01 0.02 0.01 0.01 0.01 0.00 0.00 0.01 0.01 0.01 0.01 0.01 0.02 0.02 0.02 0.02 0.02 0.02 0.02 0.02 0.01 0.03 0.05 0.08 0.06 0.04 0.02 0.01 0.01 0.01 0.01 0.01 0.02 0.02 0.04 0.06 0.07 0.07 0.07 0.06 0.06 0.05 0.04 0.04
0.00 0.00 0.00 0.01 0.00 0.02 0.02 0.01 0.01 0.01 0.01 0.00 0.00 0.01 0.02 0.02 0.02 0.02 0.03 0.02 0.03 0.02 0.02 0.03 0.02 0.01 0.01 0.01 0.01 0.03 0.04 0.02 0.01 0.01 0.01 0.01 0.01 0.01 0.02 0.03 0.05 0.06 0.06 0.06 0.04 0.04 0.04 0.04 0.06
0.01 0.00 0.00 0.00 0.00 0.01 0.01 0.01 0.01 0.02 0.01 0.01 0.01 0.01 0.03 0.05 0.04 0.04 0.03 0.03 0.03 0.02 0.02 0.02 0.03 0.01 0.01 0.01 0.01 0.02 0.03 0.04 0.03 0.02 0.02 0.03 0.01 0.01 0.01 0.03 0.05 0.04 0.05 0.05 0.04 0.03 0.03 0.04 0.06
0.02 0.01 0.00 0.00 0.00 0.01 0.01 0.01 0.01 0.02 0.01 0.01 0.01 0.01 0.02 0.06 0.06 0.04 0.03 0.02 0.03 0.03 0.03 0.03 0.03 0.02 0.02 0.02 0.02 0.02 0.02 0.03 0.02 0.01 0.02 0.02 0.02 0.01 0.02 0.04 0.07 0.07 0.05 0.04 0.04 0.04 0.04 0.05 0.06
0.00 0.00 0.00 0.00 0.00 0.01 0.01 0.01 0.02 0.02 0.02 0.01 0.01 0.01 0.03 0.05 0.04 0.04 0.04 0.06 0.07 0.05 0.04 0.04 0.04 0.04 0.03 0.03 0.02 0.02 0.03 0.02 0.02 0.02 0.03 0.04 0.04 0.03 0.03 0.04 0.06 0.07 0.06 0.04 0.04 0.05 0.05 0.04 0.06
0.00 0.00 0.00 0.00 0.00 0.00 0.01 0.01 0.01 0.02 0.01 0.01 0.01 0.02 0.06 0.07 0.05 0.05 0.07 0.08 0.07 0.06 0.05 0.05 0.05 0.05 0.05 0.05 0.05 0.05 0.05 0.05 0.05 0.05 0.04 0.05 0.06 0.06 0.05 0.05 0.07 0.06 0.04 0.04 0.04 0.05 0.04 0.03 0.04
0.00 0.00 0.00 0.00 0.00 0.00 0.00 0.01 0.01 0.01 0.00 0.01 0.02 0.04 0.09 0.13 0.12 0.10 0.11 0.11 0.07 0.06 0.06 0.06 0.05 0.05 0.04 0.05 0.05 0.04 0.04 0.05 0.05 0.04 0.05 0.04 0.04 0.03 0.02 0.04 0.08 0.06 0.03 0.03 0.03 0.03 0.03 0.02 0.03
0.00 0.00 0.01 0.01 0.00 0.01 0.01 0.01 0.02 0.02 0.01 0.02 0.04 0.09 0.08 0.06 0.09 0.13 0.12 0.11 0.08 0.07 0.08 0.08 0.05 0.05 0.05 0.04 0.04 0.03 0.03 0.04 0.04 0.05 0.05 0.04 0.03 0.03 0.03 0.04 0.06 0.06 0.04 0.03 0.04 0.04 0.03 0.03 0.03
0.00 0.00 0.01 0.01 0.01 0.01 0.01 0.02 0.02 0.02 0.02 0.03 0.04 0.09 0.15 0.10 0.08 0.11 0.14 0.13 0.11 0.09 0.10 0.11 0.07 0.06 0.06 0.06 0.06 0.06 0.05 0.05 0.05 0.06 0.06 0.06 0.05 0.03 0.04 0.05 0.06 0.06 0.04 0.04 0.04 0.04 0.04 0.04 0.02
0.00 0.01 0.01 0.01 0.00 0.01 0.02 0.02 0.03 0.04 0.04 0.03 0.03 0.04 0.09 0.08 0.07 0.08 0.08 0.11 0.13 0.13 0.14 0.13 0.10 0.07 0.07 0.08 0.08 0.07 0.06 0.05 0.06 0.06 0.05 0.04 0.04 0.03 0.03 0.04 0.06 0.05 0.04 0.04 0.04 0.04 0.04 0.04 0.02
0.00 0.01 0.01 0.01 0.01 0.03 0.03 0.03 0.03 0.04 0.04 0.03 0.02 0.02 0.05 0.05 0.05 0.06 0.06 0.07 0.09 0.13 0.16 0.17 0.15 0.11 0.09 0.10 0.09 0.08 0.07 0.05 0.04 0.03 0.03 0.03 0.03 0.02 0.02 0.03 0.04 0.04 0.04 0.05 0.05 0.04 0.04 0.04 0.03
0.00 0.00 0.00 0.01 0.03 0.04 0.03 0.04 0.04 0.03 0.03 0.03 0.03 0.03 0.04 0.05 0.04 0.04 0.04 0.03 0.05 0.08 0.16 0.18 0.13 0.11 0.10 0.08 0.06 0.06 0.05 0.04 0.03 0.02 0.01 0.01 0.01 0.01 0.01 0.02 0.02 0.02 0.03 0.04 0.05 0.04 0.03 0.04 0.05
MSLP
1006.10 1007.16 1008.22 1009.11 1009.67 1009.82 1009.56 1008.98 1008.23 1007.51 1006.98 1006.77 1006.92 1007.39 1008.07 1008.80 1009.43 1009.85 1009.99 1009.89 1009.60 1009.23 1008.89 1008.65 1008.56 1008.59 1008.69 1008.79 1008.82 1008.74 1008.56 1008.30 1008.01 1007.77 1007.61 1007.57 1007.65 1007.84 1008.11 1008.42 1008.77 1009.13 1009.50 1009.88 1010.27 1010.65 1011.01 1011.34 1011.62
1006.49 1007.69 1008.81 1009.64 1010.05 1009.96 1009.42 1008.56 1007.57 1006.68 1006.06 1005.83 1006.01 1006.55 1007.30 1008.09 1008.78 1009.23 1009.42 1009.37 1009.15 1008.88 1008.65 1008.54 1008.56 1008.69 1008.87 1009.03 1009.10 1009.05 1008.90 1008.66 1008.41 1008.18 1008.03 1007.98 1008.03 1008.16 1008.37 1008.63 1008.92 1009.26 1009.63 1010.04 1010.47 1010.91 1011.32 1011.68 1011.98
1007.02 1008.32 1009.45 1010.19 1010.42 1010.10 1009.30 1008.20 1007.01 1005.99 1005.31 1005.08 1005.30 1005.89 1006.69 1007.53 1008.24 1008.72 1008.93 1008.91 1008.76 1008.57 1008.45 1008.44 1008.58 1008.81 1009.06 1009.28 1009.40 1009.40 1009.29 1009.10 1008.89 1008.70 1008.56 1008.50 1008.51 1008.58 1008.70 1008.87 1009.10 1009.39 1009.75 1010.18 1010.65 1011.14 1011.61 1012.02 1012.35
1007.63 1008.98 1010.07 1010.70 1010.74 1010.21 1009.20 1007.91 1006.59 1005.50 1004.81 1004.61 1004.88 1005.51 1006.35 1007.20 1007.91 1008.38 1008.59 1008.59 1008.49 1008.37 1008.34 1008.44 1008.66 1008.97 1009.29 1009.55 1009.72 1009.76 1009.70 1009.57 1009.41 1009.27 1009.16 1009.10 1009.07 1009.08 1009.12 1009.20 1009.35 1009.58 1009.91 1010.34 1010.84 1011.37 1011.90 1012.36 1012.73
1008.26 1009.60 1010.60 1011.08 1010.95 1010.23 1009.07 1007.67 1006.30 1005.21 1004.56 1004.42 1004.75 1005.42 1006.27 1007.12 1007.80 1008.24 1008.44 1008.46 1008.39 1008.34 1008.39 1008.56 1008.85 1009.21 1009.56 1009.85 1010.04 1010.11 1010.09 1010.01 1009.91 1009.83 1009.76 1009.72 1009.68 1009.65 1009.63 1009.63 1009.70 1009.87 1010.15 1010.56 1011.06 1011.62 1012.17 1012.67 1013.08
1008.82 1010.06 1010.92 1011.24 1010.94 1010.09 1008.84 1007.41 1006.07 1005.05 1004.49 1004.43 1004.83 1005.54 1006.40 1007.21 1007.86 1008.27 1008.45 1008.49 1008.46 1008.47 1008.58 1008.82 1009.15 1009.53 1009.89 1010.17 1010.35 1010.42 1010.43 1010.39 1010.35 1010.32 1010.32 1010.32 1010.31 1010.27 1010.21 1010.16 1010.17 1010.27 1010.49 1010.85 1011.33 1011.87 1012.43 1012.94 1013.37
1009.23 1010.32 1010.99 1011.12 1010.67 1009.72 1008.44 1007.05 1005.80 1004.90 1004.47 1004.53 1005.00 1005.74 1006.58 1007.37 1007.97 1008.35 1008.54 1008.60 1008.62 1008.70 1008.88 1009.16 1009.53 1009.91 1010.25 1010.49 1010.64 1010.69 1010.69 1010.68 1010.69 1010.73 1010.80 1010.87 1010.91 1010.90 1010.84 1010.77 1010.73 1010.77 1010.93 1011.23 1011.64 1012.14 1012.67 1013.16 1013.59
1009.46 1010.33 1010.78 1010.71 1010.12 1009.11 1007.84 1006.54 1005.43 1004.68 1004.39 1004.56 1005.09 1005.86 1006.68 1007.43 1008.00 1008.37 1008.57 1008.68 1008.78 1008.93 1009.19 1009.53 1009.92 1010.29 1010.60 1010.80 1010.89 1010.91 1010.89 1010.89 1010.94 1011.05 1011.20 1011.34 1011.45 1011.50 1011.48 1011.42 1011.35 1011.35 1011.44 1011.66 1011.99 1012.41 1012.88 1013.33 1013.73
1009.50 1010.13 1010.34 1010.07 1009.36 1008.30 1007.08 1005.89 1004.92 1004.33 1004.18 1004.44 1005.03 1005.79 1006.59 1007.31 1007.86 1008.23 1008.47 1008.64 1008.83 1009.08 1009.42 1009.83 1010.25 1010.62 1010.90 1011.06 1011.11 1011.08 1011.05 1011.05 1011.13 1011.29 1011.51 1011.73 1011.92 1012.04 1012.07 1012.04 1011.98 1011.95 1011.98 1012.12 1012.37 1012.70 1013.08 1013.47 1013.84
1009.42 1009.79 1009.76 1009.31 1008.48 1007.40 1006.23 1005.15 1004.32 1003.87 1003.83 1004.15 1004.76 1005.50 1006.27 1006.95 1007.49 1007.88 1008.17 1008.43 1008.71 1009.07 1009.50 1009.98 1010.45 1010.84 1011.11 1011.25 1011.27 1011.23 1011.18 1011.19 1011.29 1011.48 1011.75 1012.04 1012.30 1012.49 1012.59 1012.60 1012.56 1012.52 1012.52 1012.60 1012.77 1013.01 1013.31 1013.63 1013.95
1009.28 1009.42 1009.17 1008.55 1007.63 1006.54 1005.42 1004.44 1003.72 1003.37 1003.39 1003.74 1004.33 1005.03 1005.75 1006.40 1006.92 1007.34 1007.69 1008.04 1008.42 1008.88 1009.41 1009.96 1010.48 1010.90 1011.20 1011.34 1011.37 1011.34 1011.30 1011.31 1011.43 1011.65 1011.94 1012.27 1012.59 1012.83 1012.99 1013.05 1013.05 1013.03 1013.02 1013.07 1013.18 1013.36 1013.59 1013.85 1014.13
1009.17 1009.10 1008.68 1007.93 1006.95 1005.85 1004.78 1003.87 1003.22 1002.92 1002.96 1003.29 1003.82 1004.47 1005.13 1005.74 1006.25 1006.70 1007.11 1007.53 1008.00 1008.55 1009.15 1009.76 1010.33 1010.81 1011.15 1011.34 1011.41 1011.42 1011.41 1011.45 1011.58 1011.80 1012.10 1012.44 1012.77 1013.05 1013.25 1013.37 1013.42 1013.44 1013.46 1013.51 1013.61 1013.76 1013.96 1014.18 1014.42
1009.15 1008.93 1008.36 1007.53 1006.51 1005.43 1004.40 1003.53 1002.92 1002.62 1002.62 1002.89 1003.35 1003.91 1004.51 1005.08 1005.59 1006.06 1006.51 1006.99 1007.52 1008.12 1008.76 1009.42 1010.04 1010.56 1010.97 1011.23 1011.38 1011.46 1011.51 1011.59 1011.73 1011.95 1012.23 1012.55 1012.87 1013.16 1013.39 1013.55 1013.67 1013.75 1013.82 1013.92 1014.05 1014.21 1014.40 1014.62 1014.85
1009.24 1008.90 1008.26 1007.39 1006.38 1005.32 1004.32 1003.47 1002.85 1002.51 1002.44 1002.61 1002.97 1003.44 1003.97 1004.51 1005.02 1005.51 1006.00 1006.51 1007.07 1007.68 1008.33 1009.00 1009.64 1010.21 1010.68 1011.03 1011.28 1011.46 1011.58 1011.71 1011.88 1012.08 1012.33 1012.62 1012.90 1013.17 1013.42 1013.62 1013.79 1013.95 1014.11 1014.28 1014.47 1014.69 1014.92 1015.16 1015.40
1009.41 1009.01 1008.34 1007.47 1006.49 1005.47 1004.50 1003.66 1003.00 1002.58 1002.41 1002.46 1002.70 1003.08 1003.55 1004.06 1004.58 1005.10 1005.61 1006.14 1006.70 1007.30 1007.93 1008.57 1009.21 1009.81 1010.33 1010.78 1011.13 1011.41 1011.63 1011.82 1012.01 1012.21 1012.42 1012.65 1012.89 1013.13 1013.37 1013.61 1013.84 1014.08 1014.33 1014.59 1014.87 1015.16 1015.45 1015.74 1016.01
1009.58 1009.16 1008.51 1007.70 1006.78 1005.81 1004.87 1004.01 1003.29 1002.77 1002.46 1002.37 1002.49 1002.77 1003.19 1003.69 1004.24 1004.79 1005.34 1005.89 1006.44 1007.00 1007.59 1008.19 1008.80 1009.40 1009.97 1010.49 1010.94 1011.33 1011.64 1011.90 1012.12 1012.31 1012.49 1012.67 1012.87 1013.08 1013.31 1013.57 1013.86 1014.17 1014.50 1014.86 1015.23 1015.59 1015.96 1016.30 1016.62
1009.69 1009.29 1008.70 1007.97 1007.14 1006.24 1005.32 1004.43 1003.63 1002.97 1002.50 1002.26 1002.24 1002.44 1002.82 1003.33 1003.91 1004.52 1005.12 1005.70 1006.25 1006.78 1007.32 1007.87 1008.45 1009.04 1009.63 1010.21 1010.75 1011.23 1011.63 1011.95 1012.20 1012.40 1012.56 1012.71 1012.87 1013.06 1013.29 1013.56 1013.89 1014.26 1014.66 1015.09 1015.53 1015.96 1016.38 1016.78 1017.14
1009.67 1009.33 1008.84 1008.23 1007.50 1006.67 1005.77 1004.84 1003.92 1003.11 1002.47 1002.05 1001.89 1002.00 1002.33 1002.86 1003.50 1004.19 1004.86 1005.50 1006.07 1006.60 1007.11 1007.63 1008.17 1008.75 1009.36 1009.98 1010.58 1011.13 1011.60 1011.98 1012.27 1012.48 1012.64 1012.77 1012.91 1013.09 1013.33 1013.63 1013.98 1014.39 1014.83 1015.30 1015.77 1016.24 1016.70 1017.13 1017.52
1009.50 1009.25 1008.89 1008.42 1007.82 1007.07 1006.18 1005.18 1004.14 1003.15 1002.31 1001.70 1001.38 1001.38 1001.68 1002.22 1002.93 1003.71 1004.49 1005.21 1005.84 1006.41 1006.92 1007.43 1007.95 1008.53 1009.14 1009.79 1010.43 1011.03 1011.56 1011.99 1012.31 1012.54 1012.71 1012.85 1013.01 1013.20 1013.45 1013.77 1014.14 1014.57 1015.03 1015.50 1015.97 1016.44 1016.89 1017.32 1017.74
1009.20 1009.07 1008.87 1008.57 1008.09 1007.42 1006.53 1005.46 1004.28 1003.10 1002.04 1001.22 1000.73 1000.62 1000.86 1001.41 1002.18 1003.06 1003.95 1004.78 1005.51 1006.15 1006.71 1007.24 1007.78 1008.36 1008.99 1009.65 1010.32 1010.95 1011.51 1011.97 1012.32 1012.58 1012.77 1012.94 1013.12 1013.35 1013.63 1013.97 1014.37 1014.80 1015.24 1015.68 1016.12 1016.54 1016.96 1017.38 1017.79
1008.80 1008.83 1008.82 1008.68 1008.35 1007.75 1006.86 1005.72 1004.39 1003.01 1001.73 1000.70 1000.03 999.78 999.95 1000.49 1001.30 1002.26 1003.26 1004.21 1005.05 1005.78 1006.42 1007.01 1007.60 1008.21 1008.86 1009.54 1010.22 1010.86 1011.44 1011.91 1012.28 1012.56 1012.79 1013.00 1013.23 1013.50 1013.82 1014.20 1014.61 1015.03 1015.45 1015.84 1016.22 1016.58 1016.94 1017.31 1017.70
1008.39 1008.59 1008.76 1008.80 1008.60 1008.07 1007.19 1005.97 1004.52 1002.96 1001.48 1000.25 999.40 999.01 999.09 999.58 1000.40 1001.42 1002.50 1003.54 1004.49 1005.33 1006.06 1006.72 1007.37 1008.02 1008.71 1009.41 1010.10 1010.74 1011.32 1011.79 1012.17 1012.47 1012.73 1012.98 1013.26 1013.59 1013.96 1014.38 1014.81 1015.22 1015.61 1015.96 1016.27 1016.56 1016.86 1017.17 1017.52
1008.02 1008.39 1008.73 1008.93 1008.85 1008.40 1007.52 1006.26 1004.70 1003.01 1001.37 999.98 998.97 998.45 998.42 998.85 999.64 1000.66 1001.77 1002.87 1003.89 1004.80 1005.61 1006.35 1007.06 1007.77 1008.49 1009.21 1009.91 1010.56 1011.13 1011.60 1011.97 1012.29 1012.57 1012.86 1013.19 1013.56 1013.99 1014.45 1014.90 1015.33 1015.70 1016.01 1016.27 1016.50 1016.73 1016.99 1017.30
1007.73 1008.24 1008.73 1009.06 1009.08 1008.69 1007.84 1006.56 1004.96 1003.19 1001.45 999.95 998.84 998.21 998.08 998.43 999.15 1000.11 1001.19 1002.28 1003.30 1004.24 1005.09 1005.88 1006.64 1007.40 1008.17 1008.92 1009.63 1010.29 1010.85 1011.31 1011.69 1012.00 1012.30 1012.62 1012.98 1013.40 1013.88 1014.37 1014.86 1015.30 1015.67 1015.97 1016.19 1016.39 1016.58 1016.80 1017.08
1007.54 1008.15 1008.74 1009.16 1009.25 1008.92 1008.11 1006.85 1005.25 1003.47 1001.73 1000.20 999.04 998.34 998.14 998.39 999.00 999.86 1000.84 1001.85 1002.81 1003.71 1004.55 1005.35 1006.13 1006.93 1007.72 1008.51 1009.25 1009.91 1010.48 1010.95 1011.32 1011.64 1011.94 1012.27 1012.66 1013.11 1013.62 1014.15 1014.67 1015.14 1015.53 1015.83 1016.05 1016.23 1016.41 1016.62 1016.89
1007.45 1008.10 1008.74 1009.19 1009.33 1009.03 1008.27 1007.07 1005.54 1003.83 1002.15 1000.67 999.54 998.84 998.58 998.74 999.23 999.95 1000.77 1001.62 1002.45 1003.24 1004.00 1004.76 1005.54 1006.34 1007.17 1007.99 1008.76 1009.45 1010.04 1010.52 1010.90 1011.22 1011.52 1011.86 1012.25 1012.72 1013.25 1013.81 1014.36 1014.86 1015.27 1015.60 1015.85 1016.05 1016.23 1016.44 1016.70
1007.46 1008.10 1008.72 1009.17 1009.30 1009.03 1008.32 1007.20 1005.78 1004.22 1002.67 1001.32 1000.28 999.62 999.35 999.44 999.80 1000.34 1000.97 1001.61 1002.25 1002.87 1003.51 1004.17 1004.90 1005.69 1006.53 1007.38 1008.19 1008.93 1009.56 1010.06 1010.46 1010.79 1011.10 1011.43 1011.82 1012.29 1012.83 1013.40 1013.97 1014.50 1014.95 1015.32 1015.60 1015.83 1016.04 1016.26 1016.53
1007.58 1008.17 1008.73 1009.13 1009.23 1008.96 1008.29 1007.27 1005.99 1004.60 1003.25 1002.07 1001.17 1000.60 1000.35 1000.38 1000.62 1000.98 1001.39 1001.80 1002.21 1002.62 1003.09 1003.62 1004.27 1005.02 1005.86 1006.73 1007.59 1008.37 1009.04 1009.59 1010.02 1010.37 1010.69 1011.02 1011.41 1011.87 1012.40 1012.98 1013.56 1014.11 1014.59 1015.00 1015.32 1015.59 1015.82 1016.06 1016.33
1007.86 1008.38 1008.86 1009.18 1009.23 1008.94 1008.30 1007.37 1006.23 1005.01 1003.86 1002.87 1002.13 1001.66 1001.46 1001.45 1001.58 1001.77 1001.97 1002.14 1002.31 1002.51 1002.78 1003.17 1003.71 1004.40 1005.21 1006.08 1006.97 1007.80 1008.52 1009.12 1009.59 1009.97 1010.31 1010.65 1011.04 1011.49 1012.01 1012.58 1013.17 1013.73 1014.23 1014.66 1015.02 1015.31 1015.57 1015.82 1016.09
1008.35 1008.82 1009.22 1009.46 1009.44 1009.11 1008.49 1007.61 1006.59 1005.52 1004.53 1003.72 1003.12 1002.75 1002.58 1002.55 1002.59 1002.63 1002.63 1002.59 1002.54 1002.53 1002.60 1002.83 1003.25 1003.85 1004.61 1005.47 1006.36 1007.22 1007.98 1008.62 1009.14 1009.56 1009.93 1010.29 1010.69 1011.14 1011.66 1012.22 1012.81 1013.37 1013.88 1014.33 1014.70 1015.01 1015.28 1015.53 1015.79
Thickness
5832 5832 5830 5819 5797 5778 5776 5792 5809 5813 5818 5828 5831 5825 5813 5804 5794 5782 5805 5811 5806 5801 5798 5795 5793 5792 5790 5788 5786 5784 5782 5781 5780 5779 5778 5777 5776 5775 5774 5773 5772 5770 5769 5768 5767 5766 5765 5763 5762
5833 5831 5822 5804 5779 5761 5773 5798 5806 5815 5825 5831 5830 5824 5815 5808 5813 5807 5807 5807 5806 5801 5798 5796 5794 5792 5790 5787 5785 5783 5781 5780 5779 5777 5776 5776 5775 5774 5773 5772 5770 5768 5767 5766 5766 5764 5763 5762 5761
5832 5829 5807 5789 5773 5766 5779 5802 5811 5823 5833 5832 5823 5822 5814 5808 5812 5810 5811 5810 5805 5801 5798 5796 5794 5792 5789 5787 5785 5783 5781 5779 5778 5776 5775 5774 5773 5772 5772 5770 5769 5767 5766 5765 5764 5763 5762 5761 5760
5826 5812 5799 5780 5775 5787 5798 5810 5819 5820 5826 5830 5823 5811 5814 5822 5820 5816 5814 5809 5804 5800 5798 5795 5793 5791 5788 5786 5784 5782 5780 5778 5777 5775 5774 5773 5772 5771 5770 5769 5768 5766 5765 5764 5763 5762 5761 5760 5759
5819 5798 5780 5769 5779 5798 5812 5821 5824 5818 5819 5822 5820 5803 5802 5819 5824 5819 5813 5808 5803 5799 5797 5795 5792 5790 5787 5785 5783 5781 5779 5777 5776 5774 5772 5771 5770 5769 5768 5767 5766 5765 5764 5763 5761 5760 5759 5758 5757
5799 5787 5765 5760 5780 5801 5813 5824 5825 5818 5816 5819 5816 5802 5799 5814 5815 5813 5812 5807 5804 5800 5796 5794 5791 5788 5786 5784 5782 5779 5777 5776 5774 5773 5771 5769 5768 5768 5766 5765 5765 5764 5763 5761 5760 5759 5758 5757 5756
5790 5778 5767 5772 5781 5794 5811 5825 5821 5815 5814 5819 5821 5800 5798 5807 5813 5813 5810 5806 5802 5799 5795 5792 5789 5787 5785 5782 5780 5778 5776 5774 5772 5771 5769 5768 5767 5766 5765 5764 5763 5762 5762 5760 5759 5757 5756 5756 5755
5800 5780 5772 5775 5782 5792 5815 5822 5824 5820 5817 5829 5825 5802 5796 5808 5814 5811 5806 5802 5798 5795 5793 5791 5788 5786 5783 5781 5778 5776 5774 5772 5771 5769 5768 5766 5765 5764 5763 5762 5761 5761 5760 5759 5757 5756 5755 5754 5753
5806 5772 5762 5777 5786 5796 5814 5815 5821 5829 5824 5824 5826 5820 5818 5818 5814 5806 5799 5795 5792 5791 5790 5789 5786 5784 5781 5779 5777 5775 5772 5770 5769 5768 5766 5765 5763 5762 5761 5760 5760 5759 5758 5757 5756 5755 5754 5753 5752
5791 5765 5776 5796 5804 5805 5812 5814 5817 5815 5811 5811 5815 5819 5821 5817 5810 5802 5796 5792 5789 5787 5787 5787 5785 5782 5779 5778 5775 5773 5771 5769 5768 5766 5765 5763 5762 5760 5759 5759 5758 5757 5756 5755 5754 5753 5753 5752 5750
5791 5781 5794 5806 5813 5813 5810 5814 5820 5811 5801 5809 5810 5812 5814 5811 5806 5801 5798 5795 5792 5790 5787 5785 5783 5781 5778 5776 5773 5771 5769 5767 5766 5765 5763 5762 5760 5759 5758 5757 5756 5756 5755 5754 5753 5752 5750 5750 5749
5790 5795 5803 5809 5817 5815 5813 5814 5814 5813 5813 5824 5824 5820 5815 5808 5804 5802 5798 5796 5793 5789 5787 5785 5783 5779 5776 5774 5771 5769 5767 5765 5764 5763 5762 5760 5759 5757 5756 5755 5754 5754 5753 5752 5752 5750 5749 5748 5747
5786 5793 5806 5813 5814 5816 5816 5813 5812 5813 5823 5824 5821 5816 5811 5807 5805 5804 5803 5798 5794 5790 5788 5785 5782 5778 5775 5772 5769 5767 5765 5764 5763 5762 5760 5759 5758 5756 5755 5754 5753 5753 5752 5751 5750 5749 5747 5746 5745
5790 5794 5801 5808 5809 5813 5809 5809 5808 5810 5821 5818 5814 5809 5808 5806 5805 5802 5799 5796 5793 5791 5788 5786 5782 5779 5775 5771 5767 5765 5764 5762 5761 5760 5759 5758 5757 5755 5754 5752 5751 5751 5751 5750 5748 5747 5746 5745 5744
5792 5785 5789 5800 5805 5808 5806 5793 5801 5813 5817 5810 5809 5807 5806 5805 5805 5802 5800 5797 5794 5791 5789 5785 5781 5777 5773 5769 5766 5764 5762 5761 5759 5759 5757 5756 5755 5754 5753 5751 5750 5749 5749 5748 5747 5745 5745 5744 5742
5778 5770 5764 5787 5800 5805 5792 5773 5800 5812 5810 5803 5804 5804 5803 5803 5804 5804 5802 5799 5795 5791 5787 5783 5781 5776 5772 5769 5766 5763 5761 5759 5757 5756 5755 5754 5753 5752 5751 5749 5748 5748 5747 5746 5744 5743 5741 5740 5738
5754 5747 5754 5773 5797 5798 5788 5775 5797 5809 5805 5800 5801 5801 5800 5799 5800 5802 5801 5799 5794 5791 5786 5781 5779 5775 5772 5768 5765 5761 5759 5757 5756 5754 5753 5752 5751 5750 5749 5748 5747 5746 5745 5744 5743 5740 5739 5737 5735
5737 5744 5751 5761 5785 5789 5780 5779 5793 5803 5802 5798 5798 5798 5796 5795 5798 5801 5799 5796 5792 5789 5785 5780 5777 5773 5769 5764 5760 5757 5754 5753 5753 5751 5750 5749 5748 5748 5747 5746 5745 5744 5742 5741 5740 5738 5736 5735 5734
5750 5748 5748 5764 5784 5780 5775 5778 5786 5796 5795 5793 5792 5791 5791 5792 5796 5798 5795 5792 5788 5784 5781 5777 5772 5769 5765 5760 5755 5751 5748 5749 5748 5749 5748 5748 5746 5745 5744 5743 5742 5741 5739 5738 5737 5735 5733 5731 5731
5747 5741 5745 5761 5779 5777 5769 5773 5783 5789 5790 5791 5789 5788 5788 5787 5788 5789 5789 5785 5782 5779 5777 5773 5769 5766 5763 5759 5756 5752 5749 5747 5746 5746 5745 5745 5744 5743 5742 5741 5739 5738 5737 5735 5734 5732 5729 5728 5728
5743 5741 5746 5752 5766 5771 5765 5757 5768 5780 5786 5789 5789 5789 5789 5787 5784 5783 5782 5779 5777 5775 5772 5771 5767 5763 5760 5757 5753 5750 5745 5743 5740 5740 5740 5741 5741 5741 5740 5738 5737 5736 5735 5732 5731 5730 5727 5723 5724
5735 5756 5758 5755 5745 5735 5750 5725 5750 5765 5769 5776 5780 5782 5783 5784 5782 5780 5778 5776 5774 5772 5770 5767 5764 5760 5757 5754 5750 5746 5741 5737 5736 5736 5737 5737 5738 5737 5737 5736 5734 5733 5732 5730 5729 5728 5726 5723 5719
5748 5762 5758 5754 5742 5732 5738 5725 5736 5755 5754 5764 5773 5779 5780 5781 5779 5777 5776 5774 5771 5768 5766 5764 5760 5756 5753 5751 5747 5743 5740 5737 5735 5734 5733 5732 5733 5733 5733 5732 5730 5729 5728 5727 5726 5725 5724 5722 5719
5761 5754 5746 5736 5722 5709 5729 5723 5723 5742 5753 5761 5769 5774 5775 5775 5774 5772 5772 5769 5765 5763 5760 5758 5754 5750 5750 5747 5744 5740 5737 5734 5731 5729 5727 5727 5727 5728 5728 5728 5726 5725 5725 5724 5724 5723 5722 5720 5719
5748 5722 5699 5697 5690 5699 5728 5721 5721 5749 5762 5765 5766 5768 5770 5770 5767 5764 5763 5762 5760 5757 5755 5752 5749 5745 5744 5742 5740 5737 5735 5733 5730 5728 5726 5724 5723 5723 5724 5724 5723 5722 5722 5722 5721 5720 5719 5718 5716
5737 5722 5694 5685 5685 5699 5721 5714 5728 5754 5763 5767 5767 5766 5766 5764 5762 5760 5758 5758 5757 5754 5752 5749 5745 5741 5739 5738 5736 5734 5732 5730 5728 5726 5724 5723 5721 5721 5722 5721 5721 5720 5719 5719 5718 5716 5715 5714 5713
5733 5723 5723 5702 5701 5695 5703 5716 5733 5748 5751 5754 5756 5755 5754 5756 5756 5755 5754 5753 5752 5750 5747 5744 5741 5738 5736 5734 5732 5730 5728 5726 5725 5723 5722 5720 5719 5719 5719 5718 5717 5717 5716 5715 5714 5712 5711 5710 5709
5742 5732 5710 5696 5684 5682 5697 5704 5709 5728 5735 5741 5744 5745 5746 5749 5750 5751 5750 5749 5748 5746 5743 5739 5738 5735 5732 5730 5729 5727 5724 5723 5721 5720 5718 5718 5717 5716 5715 5715 5715 5714 5713 5711 5709 5708 5707 5706 5706
5728 5722 5709 5694 5691 5680 5679 5693 5730 5731 5735 5736 5738 5740 5742 5743 5744 5744 5745 5744 5742 5739 5736 5733 5731 5729 5727 5725 5724 5722 5720 5718 5717 5716 5715 5715 5714 5713 5712 5711 5711 5710 5708 5706 5705 5703 5703 5702 5702
5733 5721 5707 5690 5688 5688 5682 5694 5737 5737 5737 5736 5734 5736 5737 5739 5740 5740 5740 5737 5734 5732 5730 5727 5725 5723 5722 5721 5719 5717 5715 5714 5712 5711 5711 5711 5710 5709 5709 5708 5706 5705 5703 5702 5700 5699 5699 5698 5697